Home > Weather > Fort Myers > Past weeks

Flag for USA Past Weather in Fort Myers, Florida, USA — Yesterday and Last 2 Weeks

Now
91 °F

Sunny.


Feels Like: 91 °F
Forecast: 70 / 88 °F
Wind: 7 mph from Northwest

Location: Page Field

Current Time: May 24, 2016 at 3:40:39 PM

Latest Report: May 24, 2016 at 2:53 PM


Visibility: 10 mi

Pressure: 30.08 "Hg

Humidity: 36%

Dew Point: 60 °F

Location of Fort MyersLocation

Past Weather in Fort Myers — Graph

°F

Fort Myers Temperature Yesterday

Maximum temperature yesterday: 87 °F (at 2:53 PM)
Minimum temperature yesterday: 75 °F (at 5:53 AM)
Average temperature yesterday: 80 °F

High & Low Weather Summary for the Past Weeks

 TemperatureHumidityPressure
High92 °F (May 16, 2:53 PM)97% (May 18, 7:53 AM)30.16 "Hg (May 18, 7:53 AM)
Low67 °F (May 10, 1:53 AM)33% (May 9, 2:53 PM)29.89 "Hg (May 22, 4:53 PM)
Average80 °F69%30.03 "Hg
* Reported May 9 1:53 PM — May 24 1:53 PM, Fort Myers, Weather by CustomWeather, © 2016

Note: Actual official high and low records may vary slightly from our data, if they occured in-between our weather recording intervals... More about our weather records

Advertising

Fort Myers Weather History for the Previous 24 Hours

Scroll right to see more
 ConditionsComfort  
Time TempWeatherWind HumidityBarometerVisibility
1:53 PM
Tue, May 24
89 °FSunny.9 mph38%30.09 "Hg10 mi
12:53 PM89 °FSunny.6 mph39%30.10 "Hg10 mi
11:53 AM87 °FSunny.No wind43%30.09 "Hg10 mi
10:53 AM86 °FSunny.No wind45%30.09 "Hg10 mi
9:53 AM83 °FSunny.3 mph50%30.08 "Hg10 mi
8:53 AM79 °FSunny.3 mph58%30.06 "Hg10 mi
7:53 AM75 °FSunny.No wind69%30.05 "Hg10 mi
6:53 AM70 °FClear.No wind79%30.03 "Hg10 mi
5:53 AM69 °FClear.No wind84%30.01 "Hg10 mi
4:53 AM72 °FClear.No wind76%30.00 "Hg10 mi
3:53 AM72 °FClear.3 mph76%30.00 "Hg10 mi
2:53 AM73 °FClear.No wind81%30.01 "Hg10 mi
1:53 AM74 °FClear.3 mph82%30.03 "Hg10 mi
12:53 AM77 °FClear.No wind74%30.01 "Hg10 mi
11:53 PM
Mon, May 23
77 °FClear.6 mph74%30.02 "Hg10 mi
10:53 PM78 °FClear.7 mph71%30.01 "Hg10 mi
9:53 PM78 °FClear.8 mph74%29.98 "Hg10 mi
8:53 PM79 °FSunny.9 mph72%29.97 "Hg10 mi
7:53 PM81 °FSunny.10 mph65%29.94 "Hg10 mi
6:53 PM83 °FSunny.12 mph61%29.93 "Hg10 mi
5:53 PM85 °FSunny.13 mph55%29.93 "Hg10 mi
4:53 PM86 °FSunny.13 mph51%29.92 "Hg10 mi
3:53 PM87 °FSunny.8 mph51%29.93 "Hg10 mi
Weather by CustomWeather, © 2016

See weather overviewHow to use our weather pages